Location: Ford County Road and Bridge Department
(37.7686°N, 99.9762°W)
Time: 14:17:58
(UTC+00:00)

Cosmos 2333 Rocket - Pass Details

Date: 18 January 2020
Orbit: 839 x 863 km, 70.8° (Epoch: 23 February)

Event Time Altitude Azimuth Distance (km) Brightness Sun altitude
Rises 01:24:00 0° 333° (NNW) 3,434 5.6 -19.0°
Reaches altitude 10° 01:26:30 10° 329° (NNW) 2,491 4.9 -19.5°
Maximum altitude 01:32:06 57° 252° (WSW) 995 2.8 -20.6°
Drops below altitude 10° 01:37:36 10° 175° (S) 2,459 4.7 -21.6°
Sets 01:40:04 0° 171° (S) 3,387 5.4 -22.1°
